Wind_Speed
3 9 4 3 7 4 5 6 7 11 1 4 12 13 9 18 23 23 24 24 25 25 16 20 26 35 39 43 49 49 49 49 47 40 30 28 23 19 23 26 28 33 38 39
8 3 4 2 3 4 6 6 8 4 2 1 4 8 12 17 22 21 22 24 24 18 21 26 29 36 39 45 49 50 51 49 48 42 36 34 32 30 24 26 31 32 33 37
3 6 1 6 5 7 7 9 12 14 19 14 12 10 11 16 25 23 24 22 18 20 22 26 31 33 37 41 39 42 42 39 38 38 35 32 30 37 33 30 34 37 47 50
7 6 4 6 8 12 13 13 17 19 17 12 13 5 13 16 29 26 25 18 18 17 18 23 28 31 38 31 29 33 35 38 40 41 44 49 51 47 44 42 39 38 30 36
5 9 10 11 9 11 12 11 16 18 17 13 6 7 7 17 23 19 13 13 12 10 15 19 28 33 32 29 29 33 40 43 46 48 49 49 53 53 45 45 33 37 40 46
8 11 14 11 6 8 8 16 22 17 8 2 17 3 6 15 17 17 13 11 8 10 18 26 28 28 30 30 35 41 45 48 51 51 50 49 48 49 48 49 45 46 41 34
9 8 2 4 7 12 18 11 7 5 4 5 21 3 7 8 9 9 12 11 10 17 25 25 28 30 34 40 45 47 51 54 48 49 53 52 48 47 45 44 43 43 49 46
2 3 7 6 11 10 8 6 1 2 1 9 9 6 6 3 5 9 10 12 20 27 31 35 36 41 48 50 52 53 51 44 46 47 44 40 43 46 48 46 47 51 51 52
4 2 9 11 9 11 6 2 2 5 6 4 2 3 6 3 6 8 13 19 26 28 29 32 41 47 49 50 48 42 42 45 45 45 48 51 53 54 56 56 56 57 56 57
6 8 6 4 4 7 2 2 2 2 0 3 3 3 5 6 11 14 15 19 22 27 33 40 46 48 48 43 44 45 48 50 52 54 56 59 59 59 55 48 44 44 42 43
10 13 9 9 5 8 8 5 3 4 6 5 1 6 4 11 11 11 16 21 27 31 37 43 47 46 47 49 49 50 53 55 55 58 61 56 48 42 42 41 42 44 43 42
10 11 15 15 11 7 6 6 7 4 5 4 4 13 18 19 18 18 19 26 31 35 41 45 47 49 49 49 50 53 51 56 60 53 43 40 43 46 48 50 48 45 44 44
13 6 7 6 2 10 1 5 10 12 14 16 10 11 15 20 25 28 28 31 35 42 48 51 50 47 48 52 54 55 58 53 45 36 43 45 43 40 40 39 38 37 34 36
11 8 12 10 9 13 20 14 14 16 19 22 24 25 27 27 24 25 29 35 42 46 48 49 47 48 52 54 55 55 50 39 38 40 47 42 40 38 36 33 31 28 29 28
7 8 11 12 17 18 19 18 16 18 20 25 15 15 13 15 24 30 34 37 41 46 48 48 50 52 50 54 51 50 39 39 43 46 42 38 36 32 29 26 27 25 25 18
11 10 14 16 11 13 19 20 18 17 16 14 10 16 17 25 28 31 34 39 44 46 47 48 47 51 53 48 47 43 40 42 42 43 36 34 29 28 27 24 24 20 22 19
17 15 12 8 11 16 15 6 8 14 15 12 15 17 23 22 28 33 35 41 44 46 47 48 50 50 47 46 43 40 39 39 40 36 31 28 27 29 25 26 18 21 19 18
20 17 9 12 15 2 3 5 14 14 14 14 16 22 21 28 32 32 37 42 43 44 46 48 47 47 47 44 40 37 35 37 33 26 24 26 29 30 28 26 23 16 15 15
13 11 8 4 5 16 19 13 8 10 15 18 23 21 25 32 31 32 38 41 42 44 46 44 45 45 42 42 40 36 31 31 26 27 28 29 28 31 30 25 22 19 17 8
14 14 14 9 5 5 10 9 17 17 19 19 18 23 33 30 28 34 39 40 42 43 40 42 42 41 39 42 40 30 25 22 24 23 28 29 32 29 29 27 24 19 15 9
20 21 23 20 13 11 16 14 15 11 17 18 24 31 27 25 30 36 38 40 39 37 37 39 38 38 39 37 29 23 22 21 21 23 27 28 30 32 25 21 18 18 16 11
19 20 19 14 10 12 13 13 17 20 22 29 32 23 23 27 32 35 38 37 35 34 36 35 37 35 36 31 27 24 22 21 20 21 24 26 32 28 28 24 14 11 10 10
14 17 12 13 16 23 24 23 23 28 30 30 23 24 27 29 32 36 35 34 33 34 34 34 35 33 35 25 26 27 25 20 20 20 23 26 28 32 28 27 17 10 9 7
12 11 15 16 18 22 25 24 26 29 30 27 28 30 30 30 32 34 32 32 33 34 31 32 31 29 29 24 24 26 25 23 22 20 21 26 27 26 30 31 27 22 5 3
18 19 22 25 22 20 24 25 26 26 27 29 31 32 31 27 30 31 31 31 33 32 29 31 31 27 27 24 25 26 25 23 22 19 18 23 26 22 25 30 32 28 27 21
28 27 30 32 25 24 27 25 24 25 26 28 31 30 25 26 28 30 29 30 32 30 28 30 26 23 22 26 27 27 27 25 20 17 15 21 23 23 22 26 28 32 33 26
Wind_Direction
24 349 74 47 18 7 293 308 27 72 149 331 243 240 250 241 249 258 264 270 280 286 311 320 331 342 343 345 342 337 336 338 338 337 336 343 318 279 277 279 280 276 272 266
306 48 55 306 318 333 307 310 300 303 61 132 5 313 308 254 243 257 265 260 266 292 315 323 334 341 338 339 339 336 332 330 332 328 324 327 327 312 287 274 283 273 278 270
264 133 308 307 337 324 334 336 338 324 315 309 284 270 264 247 230 234 240 249 271 306 321 327 335 331 328 329 328 325 323 322 321 317 317 315 310 313 301 294 288 280 280 286
65 18 332 322 329 326 340 344 323 310 307 313 309 269 275 253 222 225 237 261 289 309 323 331 324 320 317 315 311 313 314 313 317 318 316 313 314 312 306 299 305 298 288 287
349 340 316 315 328 321 328 329 323 321 300 303 326 312 320 202 215 212 244 264 281 299 322 307 308 312 307 303 304 312 312 311 313 314 313 310 312 310 312 316 310 314 298 296
330 322 285 286 286 322 336 311 311 304 292 283 7 313 84 183 203 219 222 241 259 282 299 309 309 307 298 295 296 299 303 305 307 309 313 316 312 309 310 310 307 308 305 301
317 16 256 298 309 318 320 342 338 357 22 234 347 111 136 97 163 194 205 208 268 297 309 309 305 298 293 296 298 298 305 311 308 307 306 308 305 302 302 302 301 300 302 301
282 316 319 324 332 333 343 346 28 264 304 299 338 115 149 114 193 225 258 286 307 308 308 309 301 303 306 304 302 307 310 307 306 309 311 308 304 300 298 294 293 295 293 294
266 274 296 305 312 340 318 235 304 292 285 295 107 113 143 196 291 305 295 303 312 309 301 301 307 306 307 308 312 309 305 308 310 310 309 307 301 295 291 289 286 286 284 286
298 303 289 302 285 333 303 318 249 258 308 306 281 197 200 217 304 282 289 309 303 302 305 307 309 310 311 312 312 311 310 310 311 307 306 306 302 298 298 296 292 288 286 283
311 309 299 257 259 314 257 234 236 259 242 183 278 303 246 312 300 268 289 305 305 304 309 312 312 313 316 318 315 311 311 311 310 309 307 306 305 302 300 298 295 290 286 283
313 302 289 293 253 282 255 252 308 253 245 238 239 275 289 282 294 287 293 298 306 314 318 316 315 316 319 318 317 319 316 314 313 314 315 312 307 301 297 294 293 288 282 279
318 271 295 321 176 196 286 337 305 277 257 256 240 270 263 270 283 286 294 307 315 318 313 312 315 321 321 322 323 321 319 319 319 318 320 317 311 306 301 298 296 292 285 276
313 263 262 259 268 273 295 277 297 289 264 271 268 280 271 280 281 290 303 309 313 311 313 318 321 321 321 324 322 319 322 321 320 320 324 320 315 309 305 301 303 294 289 287
307 299 293 281 279 271 273 275 278 284 283 288 291 288 273 288 308 310 311 310 312 316 319 321 320 320 324 323 321 323 325 324 324 325 325 324 323 321 314 305 300 304 303 297
289 301 305 302 304 282 275 260 273 293 271 277 283 316 317 326 319 310 311 315 316 320 322 322 325 327 323 321 323 325 325 325 327 326 327 331 336 342 338 325 317 303 310 296
286 289 297 289 317 311 295 333 318 281 279 279 302 312 318 319 313 311 313 316 322 324 326 328 327 323 324 325 327 328 329 329 328 332 333 338 344 347 340 336 330 324 334 320
270 276 260 285 302 309 304 264 318 290 287 303 306 311 318 320 321 318 318 320 323 329 327 325 324 325 327 329 330 330 329 330 335 343 349 355 352 350 344 341 345 338 326 317
239 242 253 261 257 286 307 290 296 298 293 293 302 314 315 319 318 313 317 323 328 330 326 325 325 327 330 328 326 326 326 330 337 341 353 351 348 344 348 335 328 333 337 343
237 244 248 230 242 243 308 291 298 308 284 301 306 311 318 317 312 317 325 330 332 329 326 325 328 330 329 326 328 328 329 337 340 351 355 350 349 342 336 339 355 352 339 323
226 234 242 246 250 273 300 296 284 284 305 310 315 319 314 312 320 327 330 331 330 327 326 328 331 331 331 335 342 348 345 345 337 351 354 358 351 349 346 339 336 337 353 350
251 229 236 239 244 262 284 280 274 293 296 302 313 315 314 324 327 326 329 331 330 327 330 332 333 337 337 341 348 351 347 344 341 346 353 358 354 358 360 359 7 32 10 12
225 231 254 247 273 287 288 291 297 298 298 305 314 320 325 326 322 327 332 332 329 333 334 334 340 344 344 345 349 352 349 348 344 352 354 360 353 3 2 17 24 19 31 24
237 234 260 274 279 286 289 289 291 296 305 310 317 321 321 317 322 329 334 334 333 335 335 336 344 344 355 359 359 358 0 359 356 359 359 4 9 17 29 26 25 22 33 340
246 254 268 272 280 281 280 284 288 295 301 307 309 309 309 314 326 332 339 337 336 336 337 336 342 346 347 354 357 357 357 359 357 0 6 8 13 27 29 23 30 26 18 14
254 271 280 278 278 278 279 286 288 291 297 301 302 303 305 319 330 338 340 337 339 338 336 336 342 349 355 357 355 357 360 357 358 6 10 14 25 36 26 21 23 15 5 4
Height
3208 3208 3208 3208 3208 3206 3206 3206 3205 3204 3203 3202 3203 3202 3202 3202 3199 3197 3196 3195 3193 3193 3194 3192 3189 3186 3181 3178 3178 3175 3172 3169 3166 3167 3170 3169 3167 3165 3163 3161 3159 3156 3153 3150
3208 3208 3208 3207 3207 3205 3205 3205 3204 3203 3202 3202 3201 3201 3200 3198 3196 3196 3193 3191 3190 3192 3190 3187 3185 3181 3176 3174 3170 3167 3165 3163 3160 3158 3158 3158 3161 3160 3157 3155 3152 3149 3147 3143
3205 3208 3207 3205 3206 3205 3204 3204 3203 3203 3200 3201 3199 3199 3198 3197 3195 3193 3191 3189 3191 3191 3188 3185 3182 3178 3174 3170 3166 3161 3158 3155 3153 3150 3147 3148 3150 3152 3152 3150 3147 3142 3138 3131
3206 3206 3205 3204 3204 3204 3203 3202 3200 3199 3197 3197 3197 3196 3194 3190 3190 3190 3189 3190 3189 3188 3186 3182 3180 3176 3172 3168 3164 3159 3154 3150 3146 3143 3140 3136 3135 3135 3136 3137 3132 3129 3124 3123
3206 3205 3204 3204 3203 3202 3203 3200 3198 3196 3194 3194 3193 3192 3189 3189 3189 3190 3191 3190 3188 3186 3183 3181 3178 3176 3170 3165 3162 3158 3152 3146 3141 3137 3132 3128 3125 3122 3118 3119 3117 3117 3116 3112
3204 3203 3203 3203 3202 3202 3201 3199 3195 3191 3189 3192 3192 3189 3191 3191 3191 3191 3189 3187 3187 3185 3183 3181 3177 3172 3167 3164 3160 3154 3147 3142 3137 3133 3128 3122 3117 3112 3108 3105 3103 3102 3100 3098
3203 3201 3202 3202 3202 3202 3200 3197 3193 3192 3192 3192 3190 3189 3191 3191 3191 3190 3190 3189 3187 3186 3182 3178 3173 3170 3164 3159 3153 3147 3144 3139 3134 3128 3123 3117 3111 3105 3100 3096 3092 3089 3086 3085
3202 3202 3201 3200 3201 3200 3198 3197 3197 3198 3199 3193 3190 3191 3192 3192 3192 3191 3189 3188 3185 3182 3177 3173 3168 3162 3158 3153 3147 3142 3135 3129 3124 3117 3111 3105 3100 3094 3089 3084 3081 3077 3074 3072
3201 3201 3200 3199 3198 3199 3197 3197 3198 3196 3195 3193 3192 3192 3192 3191 3190 3189 3187 3185 3182 3177 3172 3166 3160 3155 3149 3143 3138 3132 3126 3121 3114 3107 3101 3095 3089 3083 3077 3073 3069 3064 3061 3057
3199 3199 3198 3197 3197 3197 3196 3197 3197 3195 3197 3196 3192 3191 3189 3190 3190 3186 3183 3180 3175 3170 3165 3160 3154 3148 3142 3137 3132 3125 3119 3112 3104 3096 3088 3080 3072 3065 3059 3053 3049 3046 3044 3042
3198 3197 3198 3196 3195 3194 3194 3194 3195 3195 3194 3194 3195 3189 3188 3186 3183 3181 3178 3174 3169 3166 3161 3154 3146 3139 3133 3128 3123 3116 3108 3099 3090 3082 3073 3065 3058 3051 3047 3044 3040 3035 3032 3031
3196 3195 3192 3192 3192 3192 3193 3193 3193 3192 3192 3190 3189 3188 3186 3182 3179 3176 3174 3170 3165 3159 3152 3144 3139 3133 3128 3121 3114 3105 3095 3086 3076 3067 3059 3054 3047 3041 3036 3031 3026 3021 3019 3017
3193 3191 3190 3189 3191 3190 3190 3191 3190 3189 3188 3186 3186 3185 3181 3178 3175 3172 3168 3163 3157 3152 3146 3139 3133 3126 3119 3111 3103 3093 3084 3074 3065 3058 3052 3044 3037 3030 3024 3018 3013 3008 3005 3004
3190 3189 3189 3189 3189 3188 3186 3186 3186 3186 3184 3182 3180 3179 3177 3175 3172 3168 3164 3159 3153 3147 3140 3131 3124 3118 3110 3101 3092 3083 3074 3065 3059 3051 3043 3035 3027 3020 3013 3007 3003 2998 2995 2994
3189 3188 3186 3185 3184 3184 3182 3182 3181 3180 3178 3176 3175 3173 3172 3171 3168 3162 3158 3153 3147 3139 3132 3124 3118 3110 3100 3092 3082 3074 3066 3059 3052 3043 3035 3027 3018 3011 3004 2999 2995 2991 2988 2987
3185 3185 3183 3181 3180 3179 3175 3175 3176 3175 3173 3172 3170 3170 3169 3166 3162 3157 3152 3146 3140 3133 3125 3118 3110 3101 3092 3082 3074 3066 3059 3052 3044 3036 3028 3021 3013 3006 2999 2994 2989 2985 2981 2979
3182 3181 3181 3177 3176 3175 3172 3170 3171 3171 3170 3170 3169 3168 3166 3164 3159 3152 3146 3139 3132 3126 3118 3109 3101 3093 3084 3075 3067 3060 3053 3046 3038 3030 3024 3017 3010 3003 2996 2990 2984 2981 2977 2973
3178 3178 3178 3175 3174 3174 3170 3168 3168 3168 3166 3165 3165 3163 3160 3157 3153 3146 3139 3134 3128 3121 3113 3104 3095 3085 3076 3068 3061 3056 3050 3043 3035 3028 3021 3015 3008 3001 2995 2988 2983 2978 2975 2971
3175 3175 3175 3174 3173 3170 3166 3166 3166 3165 3165 3163 3161 3158 3156 3152 3147 3141 3136 3130 3123 3115 3106 3097 3088 3080 3071 3063 3056 3051 3046 3039 3032 3026 3019 3012 3005 2999 2992 2986 2980 2976 2973 2970
3171 3172 3173 3171 3171 3167 3163 3163 3163 3162 3159 3158 3157 3154 3151 3146 3142 3137 3131 3124 3116 3109 3101 3092 3084 3076 3068 3059 3050 3044 3040 3035 3030 3024 3017 3010 3003 2996 2990 2984 2978 2974 2970 2966
3165 3166 3166 3166 3166 3162 3159 3159 3159 3160 3159 3153 3152 3149 3145 3141 3138 3131 3125 3120 3114 3105 3097 3088 3080 3072 3062 3054 3047 3042 3037 3033 3028 3022 3016 3010 3002 2993 2985 2980 2976 2972 2969 2966
3161 3161 3161 3162 3162 3159 3156 3155 3156 3155 3152 3149 3147 3144 3140 3137 3132 3127 3123 3116 3109 3101 3092 3085 3077 3069 3060 3053 3047 3041 3036 3031 3025 3021 3016 3009 3002 2993 2985 2979 2975 2972 2969 2967
3156 3156 3157 3157 3154 3152 3151 3150 3149 3148 3146 3144 3143 3140 3137 3133 3129 3124 3119 3112 3103 3095 3087 3080 3073 3066 3058 3052 3046 3040 3035 3030 3024 3020 3015 3009 3003 2995 2987 2979 2975 2973 2971 2968
3151 3150 3151 3151 3150 3149 3147 3146 3144 3143 3141 3140 3138 3135 3133 3129 3125 3120 3115 3107 3099 3091 3085 3078 3072 3065 3059 3053 3046 3041 3034 3029 3023 3020 3015 3010 3004 2997 2991 2985 2979 2974 2971 2967
3147 3146 3145 3145 3145 3143 3142 3141 3140 3138 3136 3136 3134 3132 3129 3126 3122 3116 3110 3102 3095 3088 3082 3076 3070 3064 3059 3053 3047 3040 3035 3029 3024 3020 3016 3012 3006 3000 2996 2990 2984 2979 2974 2968
3141 3141 3141 3139 3140 3138 3136 3135 3134 3133 3132 3131 3130 3127 3124 3122 3117 3112 3106 3099 3092 3085 3079 3074 3068 3063 3058 3053 3047 3041 3035 3029 3024 3021 3017 3013 3008 3003 2999 2994 2988 2982 2976 2970